Simultaneous Nadir Overpasses (SNOs) Predictions

Prediction of SNOs between METOP-A and TERRA Satellite Orbit:

Table of predicted SNOs for the next 14.0 days since TLE Epoch: 9/16/2017
Index Date (METOP-A) Time (METOP-A) Lat,Lon (METOP-A) SZA (METOP-A ) Date (TERRA) Time (TERRA) Lat,Lon (TERRA) SZA (TERRA ) Distance(km) Time Diff (sec)
1 09/17/2017 19:45:55 -81.36, 111.79 97.54 09/17/2017 19:46:07 -81.36, 111.62 97.56 2.91 12
2 09/17/2017 20:36:35 81.36, -80.60 82.51 09/17/2017 20:35:33 81.36, -80.64 82.48 0.80 62
3 09/20/2017 15:20:15 -81.36, 178.14 96.44 09/20/2017 15:20:22 -81.36, 178.11 96.44 0.57 7
4 09/20/2017 16:10:55 81.36, -14.26 83.61 09/20/2017 16:09:48 81.37, -14.17 83.59 1.55 67
5 09/23/2017 10:54:34 -81.36,-115.54 95.33 09/23/2017 10:54:36 -81.37,-115.35 95.30 3.26 2
6 09/23/2017 11:45:13 81.36, 52.46 84.77 09/23/2017 11:44:02 81.37, 52.35 84.72 1.93 71
7 09/26/2017 05:38:14 81.35, 143.11 85.72 09/26/2017 05:39:25 81.36, 143.24 85.77 2.09 71
8 09/26/2017 06:28:54 -81.36, -49.22 94.23 09/26/2017 06:28:52 -81.35, -49.14 94.22 1.37 2
9 09/29/2017 01:12:34 81.35,-150.59 86.82 09/29/2017 01:13:41 81.35,-150.52 86.86 1.40 67




NCC Satellite Simultaneous Nadir Overpasses (SNOs) Prediction Service
